Regional Weather Roundup
Issued by NWS

Home | Current Version | Previous Version | Text Only | Print | Product List | Glossary On
Versions: 1 2 3 4 5 6 7 8 9 10 11 12 13 14 15 16 17 18 19 20 21 22 23 24 25 26 27 28 29 30 31 32 33 34 35 36 37 38 39 40 41 42 43 44 45 46 47 48 49 50
000
ASUS43 KBIS 201820
RWRND

NORTH DAKOTA REGIONAL WEATHER ROUNDUP
NATIONAL WEATHER SERVICE BISMARCK ND
1200 PM CST SAT DEC 20 2014

NOTE: "FAIR" INDICATES FEW OR NO CLOUDS BELOW 12,000 FEET WITH NO
SIGNIFICANT WEATHER AND/OR OBSTRUCTIONS TO VISIBILITY.


NDZ001>003-009>011-017-201900-
NORTHWEST NORTH DAKOTA

CITY           SKY/WX    TMP DP  RH WIND       PRES   REMARKS
WILLISTON      SUNNY     29  26  89 S3        29.83F
6HR MIN TEMP:  16; 6HR MAX TEMP:  29; 6HR PCP: TRACE;

MINOT          CLOUDY    22  19  89 SE6       29.84F FOG     WCI  14
MINOT AFB      FRZ DRZL  22  22 100 SE7       29.84F WCI  14
$$

NDZ018>021-031>035-040>046-201900-
SOUTHWEST NORTH DAKOTA

CITY           SKY/WX    TMP DP  RH WIND       PRES   REMARKS
BISMARCK       CLOUDY    20  19  96 CALM      29.90F
6HR MIN TEMP:  14; 6HR MAX TEMP:  20;

DICKINSON      SUNNY     42  29  59 W14       29.82F
GARRISON         N/A     24  21  88 SE7       29.84F WCI  16
6HR MIN TEMP:  19; 6HR MAX TEMP:  24;

HETTINGER ARPT PTSUNNY   37  28  70 W9        29.87F
$$

NDZ004>008-012>016-024-026-027-054-201900-
NORTHEAST NORTH DAKOTA

CITY           SKY/WX    TMP DP  RH WIND       PRES   REMARKS
GRAND FORKS    FOG       27  26  96 SW9       29.99F VSB 1   WCI  18
GRND FRKS AFB  CLOUDY    25  25 100 SW8       29.98F FOG     WCI  16
DEVILS LAKE    CLOUDY    25  19  80 S6        29.90F VSB 1/2 WCI  18
$$

NDZ022-023-025-028>030-036>039-047>053-201900-
SOUTHEAST NORTH DAKOTA

CITY           SKY/WX    TMP DP  RH WIND       PRES   REMARKS
FARGO          CLOUDY    32  28  85 S16       30.01F FOG
6HR MIN TEMP:  30; 6HR MAX TEMP:  32;

JAMESTOWN      FOG       27  23  85 S12       29.93F VSB 1/2 WCI  17
$$



USA.gov is the U.S. government's official web portal to all federal, state and local government web resources and services.